contact:dominique.lefevre@mio.osupytheas.fr, maurice.libes@osupytheas.fr, didier.mallarino@osupytheas.fr
Project:EMSO http://www.emso-fr.org/EMSO-France
Depth: 2436.0 m
Title:EMSO Ligure Ouest : Data MII capteur MICROCAT
DateTime_Computer,Latitude,Longitude,Temperature,Conductivity,Pressure,DateTime_Instrument
DateTime_Computer,Latitude,Longitude,degC,S m-1,dbar,DateTime_Instrument
2021-09-18T00:02:36Z,42.805,6.029,13.2991,4.60021,2470.38,2021-9-18T02:03:57Z
2021-09-18T00:05:39Z,42.805,6.029,13.2993,4.60015,2470.366,2021-9-18T02:07:01Z
2021-09-18T00:08:42Z,42.805,6.029,13.2988,4.60015,2470.357,2021-9-18T02:10:04Z
2021-09-18T00:11:46Z,42.805,6.029,13.2996,4.60015,2470.413,2021-9-18T02:13:07Z
2021-09-18T00:14:49Z,42.805,6.029,13.2996,4.60011,2470.38,2021-9-18T02:16:10Z
2021-09-18T00:17:52Z,42.805,6.029,13.2993,4.60011,2470.366,2021-9-18T02:19:13Z
2021-09-18T00:20:55Z,42.805,6.029,13.2994,4.60019,2470.38,2021-9-18T02:22:16Z
2021-09-18T00:23:58Z,42.805,6.029,13.2995,4.60019,2470.366,2021-9-18T02:25:19Z
2021-09-18T00:27:01Z,42.805,6.029,13.2994,4.60013,2470.38,2021-9-18T02:28:22Z
2021-09-18T00:30:04Z,42.805,6.029,13.2994,4.60014,2470.366,2021-9-18T02:31:26Z
2021-09-18T00:33:07Z,42.805,6.029,13.2994,4.60016,2470.357,2021-9-18T02:34:29Z
2021-09-18T00:36:11Z,42.805,6.029,13.2991,4.60012,2470.343,2021-9-18T02:37:32Z
2021-09-18T00:39:14Z,42.805,6.029,13.2996,4.60012,2470.366,2021-9-18T02:40:35Z
2021-09-18T00:42:17Z,42.805,6.029,13.2994,4.60014,2470.343,2021-9-18T02:43:38Z
2021-09-18T00:45:20Z,42.805,6.029,13.2994,4.60013,2470.343,2021-9-18T02:46:41Z
2021-09-18T00:48:23Z,42.805,6.029,13.2996,4.60019,2470.404,2021-9-18T02:49:44Z
2021-09-18T00:51:26Z,42.805,6.029,13.2991,4.60015,2470.366,2021-9-18T02:52:47Z
2021-09-18T00:54:29Z,42.805,6.029,13.2991,4.60014,2470.343,2021-9-18T02:55:50Z
2021-09-18T00:57:32Z,42.805,6.029,13.2990,4.60007,2470.39,2021-9-18T02:58:54Z
2021-09-18T01:00:36Z,42.805,6.029,13.2993,4.60011,2470.366,2021-9-18T03:01:57Z
2021-09-18T01:03:39Z,42.805,6.029,13.2990,4.60007,2470.366,2021-9-18T03:05:00Z
2021-09-18T01:06:42Z,42.805,6.029,13.2995,4.60011,2470.39,2021-9-18T03:08:03Z
2021-09-18T01:09:45Z,42.805,6.029,13.2993,4.60014,2470.366,2021-9-18T03:11:06Z
2021-09-18T01:12:48Z,42.805,6.029,13.2998,4.60019,2470.404,2021-9-18T03:14:09Z
2021-09-18T01:15:51Z,42.805,6.029,13.2993,4.60024,2470.343,2021-9-18T03:17:12Z
2021-09-18T01:18:54Z,42.805,6.029,13.2990,4.60011,2470.38,2021-9-18T03:20:15Z
2021-09-18T01:21:57Z,42.805,6.029,13.2989,4.60013,2470.357,2021-9-18T03:23:19Z
2021-09-18T01:25:00Z,42.805,6.029,13.2993,4.60016,2470.366,2021-9-18T03:26:22Z
2021-09-18T01:28:04Z,42.805,6.029,13.2993,4.60010,2470.39,2021-9-18T03:29:25Z
2021-09-18T01:31:07Z,42.805,6.029,13.2990,4.60018,2470.427,2021-9-18T03:32:28Z
2021-09-18T01:34:10Z,42.805,6.029,13.2993,4.60011,2470.39,2021-9-18T03:35:31Z
2021-09-18T01:37:13Z,42.805,6.029,13.2993,4.60014,2470.366,2021-9-18T03:38:34Z
2021-09-18T01:40:16Z,42.805,6.029,13.2998,4.60023,2470.427,2021-9-18T03:41:37Z
2021-09-18T01:43:19Z,42.805,6.029,13.2994,4.60016,2470.427,2021-9-18T03:44:40Z
2021-09-18T01:46:22Z,42.805,6.029,13.2991,4.60011,2470.366,2021-9-18T03:47:44Z
2021-09-18T01:49:26Z,42.805,6.029,13.2995,4.60019,2470.413,2021-9-18T03:50:47Z
2021-09-18T01:52:29Z,42.805,6.029,13.2995,4.60014,2470.39,2021-9-18T03:53:50Z
2021-09-18T01:55:32Z,42.805,6.029,13.2993,4.60010,2470.404,2021-9-18T03:56:53Z
2021-09-18T01:58:35Z,42.805,6.029,13.2991,4.60013,2470.413,2021-9-18T03:59:56Z
2021-09-18T02:01:38Z,42.805,6.029,13.2989,4.60014,2470.39,2021-9-18T04:02:59Z
2021-09-18T02:04:41Z,42.805,6.029,13.2998,4.60014,2470.413,2021-9-18T04:06:02Z
2021-09-18T02:07:44Z,42.805,6.029,13.2993,4.60014,2470.404,2021-9-18T04:09:05Z
2021-09-18T02:10:47Z,42.805,6.029,13.2994,4.60011,2470.404,2021-9-18T04:12:09Z
2021-09-18T02:13:50Z,42.805,6.029,13.2995,4.60013,2470.427,2021-9-18T04:15:12Z
2021-09-18T02:16:54Z,42.805,6.029,13.2990,4.60014,2470.427,2021-9-18T04:18:15Z
2021-09-18T02:19:57Z,42.805,6.029,13.2996,4.60016,2470.413,2021-9-18T04:21:18Z
2021-09-18T02:23:00Z,42.805,6.029,13.2993,4.60016,2470.427,2021-9-18T04:24:21Z
2021-09-18T02:26:03Z,42.805,6.029,13.2994,4.60012,2470.427,2021-9-18T04:27:24Z
2021-09-18T02:29:06Z,42.805,6.029,13.2993,4.60012,2470.437,2021-9-18T04:30:27Z
2021-09-18T02:32:09Z,42.805,6.029,13.2997,4.60017,2470.404,2021-9-18T04:33:30Z
2021-09-18T02:35:12Z,42.805,6.029,13.2996,4.60014,2470.45,2021-9-18T04:36:34Z
2021-09-18T02:38:15Z,42.805,6.029,13.2995,4.60018,2470.404,2021-9-18T04:39:37Z
2021-09-18T02:41:19Z,42.805,6.029,13.2992,4.60014,2470.413,2021-9-18T04:42:40Z
2021-09-18T02:44:22Z,42.805,6.029,13.2992,4.60010,2470.413,2021-9-18T04:45:43Z
2021-09-18T02:47:25Z,42.805,6.029,13.2993,4.60011,2470.45,2021-9-18T04:48:46Z
2021-09-18T02:50:28Z,42.805,6.029,13.2993,4.60016,2470.46,2021-9-18T04:51:49Z
2021-09-18T02:53:31Z,42.805,6.029,13.2995,4.60014,2470.437,2021-9-18T04:54:52Z
2021-09-18T02:56:34Z,42.805,6.029,13.2996,4.60019,2470.45,2021-9-18T04:57:55Z
2021-09-18T02:59:37Z,42.805,6.029,13.2996,4.60019,2470.45,2021-9-18T05:00:59Z
2021-09-18T03:02:40Z,42.805,6.029,13.2990,4.60015,2470.45,2021-9-18T05:04:02Z
2021-09-18T03:05:44Z,42.805,6.029,13.2993,4.60024,2470.437,2021-9-18T05:07:05Z
2021-09-18T03:08:47Z,42.805,6.029,13.2993,4.60014,2470.437,2021-9-18T05:10:08Z
2021-09-18T03:11:50Z,42.805,6.029,13.2995,4.60026,2470.437,2021-9-18T05:13:11Z
2021-09-18T03:14:53Z,42.805,6.029,13.2997,4.60021,2470.437,2021-9-18T05:16:14Z
2021-09-18T03:17:56Z,42.805,6.029,13.2993,4.60017,2470.45,2021-9-18T05:19:17Z
2021-09-18T03:20:59Z,42.805,6.029,13.2993,4.60019,2470.45,2021-9-18T05:22:20Z
2021-09-18T03:24:02Z,42.805,6.029,13.2996,4.60019,2470.427,2021-9-18T05:25:24Z
2021-09-18T03:27:05Z,42.805,6.029,13.2998,4.60017,2470.46,2021-9-18T05:28:27Z
2021-09-18T03:30:09Z,42.805,6.029,13.2990,4.60014,2470.45,2021-9-18T05:31:30Z
2021-09-18T03:33:12Z,42.805,6.029,13.2993,4.60016,2470.46,2021-9-18T05:34:33Z
2021-09-18T03:36:15Z,42.805,6.029,13.2992,4.60014,2470.45,2021-9-18T05:37:36Z
2021-09-18T03:39:18Z,42.805,6.029,13.2996,4.60019,2470.45,2021-9-18T05:40:39Z
2021-09-18T03:42:21Z,42.805,6.029,13.2994,4.60015,2470.474,2021-9-18T05:43:42Z
2021-09-18T03:45:24Z,42.805,6.029,13.2995,4.60015,2470.437,2021-9-18T05:46:45Z
2021-09-18T03:48:27Z,42.805,6.029,13.2994,4.60016,2470.45,2021-9-18T05:49:49Z
2021-09-18T03:51:30Z,42.805,6.029,13.2991,4.60014,2470.474,2021-9-18T05:52:52Z
2021-09-18T03:54:34Z,42.805,6.029,13.2991,4.60014,2470.46,2021-9-18T05:55:55Z
2021-09-18T03:57:37Z,42.805,6.029,13.2995,4.60013,2470.474,2021-9-18T05:58:58Z
2021-09-18T04:00:40Z,42.805,6.029,13.2995,4.60015,2470.497,2021-9-18T06:02:01Z
2021-09-18T04:03:43Z,42.805,6.029,13.2989,4.60015,2470.474,2021-9-18T06:05:04Z
2021-09-18T04:06:46Z,42.805,6.029,13.2992,4.60024,2470.413,2021-9-18T06:08:07Z
2021-09-18T04:09:49Z,42.805,6.029,13.2991,4.60008,2470.427,2021-9-18T06:11:10Z
2021-09-18T04:12:52Z,42.805,6.029,13.2998,4.60016,2470.437,2021-9-18T06:14:13Z
2021-09-18T04:15:55Z,42.805,6.029,13.2996,4.60016,2470.474,2021-9-18T06:17:17Z
2021-09-18T04:18:58Z,42.805,6.029,13.2991,4.60011,2470.427,2021-9-18T06:20:20Z
2021-09-18T04:22:02Z,42.805,6.029,13.2989,4.60016,2470.46,2021-9-18T06:23:23Z
2021-09-18T04:25:05Z,42.805,6.029,13.2993,4.60015,2470.46,2021-9-18T06:26:26Z
2021-09-18T04:28:08Z,42.805,6.029,13.2996,4.60019,2470.46,2021-9-18T06:29:29Z
2021-09-18T04:31:11Z,42.805,6.029,13.2993,4.60019,2470.483,2021-9-18T06:32:32Z
2021-09-18T04:34:14Z,42.805,6.029,13.2998,4.60020,2470.46,2021-9-18T06:35:35Z
2021-09-18T04:37:17Z,42.805,6.029,13.2998,4.60016,2470.483,2021-9-18T06:38:38Z
2021-09-18T04:40:20Z,42.805,6.029,13.2990,4.60017,2470.474,2021-9-18T06:41:42Z
2021-09-18T04:43:23Z,42.805,6.029,13.2993,4.60015,2470.474,2021-9-18T06:44:45Z
2021-09-18T04:46:27Z,42.805,6.029,13.2990,4.60009,2470.46,2021-9-18T06:47:48Z
2021-09-18T04:49:30Z,42.805,6.029,13.2996,4.60020,2470.46,2021-9-18T06:50:51Z
2021-09-18T04:52:33Z,42.805,6.029,13.2992,4.60015,2470.437,2021-9-18T06:53:54Z
2021-09-18T04:55:36Z,42.805,6.029,13.2990,4.60011,2470.497,2021-9-18T06:56:57Z
2021-09-18T04:58:39Z,42.805,6.029,13.2990,4.60014,2470.46,2021-9-18T07:00:00Z
2021-09-18T05:01:42Z,42.805,6.029,13.2994,4.60014,2470.52,2021-9-18T07:03:03Z
2021-09-18T05:04:45Z,42.805,6.029,13.2990,4.60010,2470.46,2021-9-18T07:06:07Z
2021-09-18T05:07:48Z,42.805,6.029,13.2995,4.60009,2470.507,2021-9-18T07:09:10Z
2021-09-18T05:10:52Z,42.805,6.029,13.2995,4.60017,2470.497,2021-9-18T07:12:13Z
2021-09-18T05:13:55Z,42.805,6.029,13.2994,4.60014,2470.437,2021-9-18T07:15:16Z
2021-09-18T05:16:58Z,42.805,6.029,13.2991,4.60011,2470.46,2021-9-18T07:18:19Z
2021-09-18T05:20:01Z,42.805,6.029,13.2992,4.60014,2470.46,2021-9-18T07:21:22Z
2021-09-18T05:23:04Z,42.805,6.029,13.2989,4.60020,2470.45,2021-9-18T07:24:25Z
2021-09-18T05:26:07Z,42.805,6.029,13.2995,4.60019,2470.483,2021-9-18T07:27:28Z
2021-09-18T05:29:10Z,42.805,6.029,13.2992,4.60011,2470.46,2021-9-18T07:30:32Z
2021-09-18T05:32:13Z,42.805,6.029,13.2992,4.60014,2470.483,2021-9-18T07:33:35Z
2021-09-18T05:35:17Z,42.805,6.029,13.2990,4.60014,2470.474,2021-9-18T07:36:38Z
2021-09-18T05:38:20Z,42.805,6.029,13.2993,4.60014,2470.483,2021-9-18T07:39:41Z
2021-09-18T05:41:23Z,42.805,6.029,13.2996,4.60016,2470.46,2021-9-18T07:42:44Z
2021-09-18T05:44:26Z,42.805,6.029,13.2991,4.60006,2470.483,2021-9-18T07:45:47Z
2021-09-18T05:47:29Z,42.805,6.029,13.2993,4.60016,2470.45,2021-9-18T07:48:50Z
2021-09-18T05:50:32Z,42.805,6.029,13.2993,4.60011,2470.483,2021-9-18T07:51:53Z
2021-09-18T05:53:35Z,42.805,6.029,13.2996,4.60014,2470.497,2021-9-18T07:54:57Z
2021-09-18T05:56:38Z,42.805,6.029,13.2991,4.60011,2470.497,2021-9-18T07:58:00Z
2021-09-18T05:59:42Z,42.805,6.029,13.2996,4.60016,2470.46,2021-9-18T08:01:03Z
2021-09-18T06:02:45Z,42.805,6.029,13.2996,4.60021,2470.497,2021-9-18T08:04:06Z
2021-09-18T06:05:48Z,42.805,6.029,13.2991,4.60013,2470.497,2021-9-18T08:07:09Z
2021-09-18T06:08:51Z,42.805,6.029,13.2990,4.60017,2470.45,2021-9-18T08:10:12Z
2021-09-18T06:11:54Z,42.805,6.029,13.2994,4.60015,2470.483,2021-9-18T08:13:15Z
2021-09-18T06:14:57Z,42.805,6.029,13.2995,4.60014,2470.497,2021-9-18T08:16:18Z
2021-09-18T06:18:00Z,42.805,6.029,13.2990,4.60011,2470.483,2021-9-18T08:19:22Z
2021-09-18T06:21:03Z,42.805,6.029,13.2990,4.60010,2470.507,2021-9-18T08:22:25Z
2021-09-18T06:24:07Z,42.805,6.029,13.2991,4.60010,2470.46,2021-9-18T08:25:28Z
2021-09-18T06:27:10Z,42.805,6.029,13.2990,4.60014,2470.427,2021-9-18T08:28:31Z
2021-09-18T06:30:13Z,42.805,6.029,13.2992,4.60009,2470.483,2021-9-18T08:31:34Z
2021-09-18T06:33:16Z,42.805,6.029,13.2990,4.60013,2470.497,2021-9-18T08:34:37Z
2021-09-18T06:36:19Z,42.805,6.029,13.2998,4.60016,2470.46,2021-9-18T08:37:40Z
2021-09-18T06:39:22Z,42.805,6.029,13.2991,4.60011,2470.474,2021-9-18T08:40:43Z
2021-09-18T06:42:25Z,42.805,6.029,13.2996,4.60014,2470.483,2021-9-18T08:43:46Z
2021-09-18T06:45:28Z,42.805,6.029,13.2990,4.60014,2470.474,2021-9-18T08:46:50Z
2021-09-18T06:48:32Z,42.805,6.029,13.2994,4.60016,2470.46,2021-9-18T08:49:53Z
2021-09-18T06:51:35Z,42.805,6.029,13.2996,4.60009,2470.45,2021-9-18T08:52:56Z
2021-09-18T06:54:38Z,42.805,6.029,13.2993,4.60013,2470.46,2021-9-18T08:55:59Z
2021-09-18T06:57:41Z,42.805,6.029,13.2991,4.60011,2470.474,2021-9-18T08:59:02Z
2021-09-18T07:00:44Z,42.805,6.029,13.2995,4.60021,2470.474,2021-9-18T09:02:05Z
2021-09-18T07:03:47Z,42.805,6.029,13.2992,4.60011,2470.46,2021-9-18T09:05:08Z
2021-09-18T07:06:50Z,42.805,6.029,13.2993,4.60007,2470.46,2021-9-18T09:08:11Z
2021-09-18T07:09:53Z,42.805,6.029,13.2995,4.60014,2470.474,2021-9-18T09:11:15Z
2021-09-18T07:12:57Z,42.805,6.029,13.2990,4.60013,2470.46,2021-9-18T09:14:18Z
2021-09-18T07:16:00Z,42.805,6.029,13.2997,4.60013,2470.45,2021-9-18T09:17:21Z
2021-09-18T07:19:03Z,42.805,6.029,13.2994,4.60011,2470.46,2021-9-18T09:20:24Z
2021-09-18T07:22:06Z,42.805,6.029,13.2991,4.60007,2470.437,2021-9-18T09:23:27Z
2021-09-18T07:25:09Z,42.805,6.029,13.2992,4.60016,2470.474,2021-9-18T09:26:30Z
2021-09-18T07:28:12Z,42.805,6.029,13.2992,4.60011,2470.474,2021-9-18T09:29:33Z
2021-09-18T07:31:15Z,42.805,6.029,13.2993,4.60014,2470.413,2021-9-18T09:32:36Z
2021-09-18T07:34:18Z,42.805,6.029,13.2995,4.60013,2470.437,2021-9-18T09:35:40Z
2021-09-18T07:37:21Z,42.805,6.029,13.2993,4.60009,2470.45,2021-9-18T09:38:43Z
2021-09-18T07:40:25Z,42.805,6.029,13.2993,4.60014,2470.437,2021-9-18T09:41:46Z
2021-09-18T07:43:28Z,42.805,6.029,13.2989,4.60015,2470.45,2021-9-18T09:44:49Z
2021-09-18T07:46:31Z,42.805,6.029,13.2996,4.60017,2470.46,2021-9-18T09:47:52Z
2021-09-18T07:49:34Z,42.805,6.029,13.2995,4.60009,2470.437,2021-9-18T09:50:55Z
2021-09-18T07:52:37Z,42.805,6.029,13.2996,4.60010,2470.437,2021-9-18T09:53:58Z
2021-09-18T07:55:40Z,42.805,6.029,13.2993,4.60015,2470.437,2021-9-18T09:57:01Z
2021-09-18T07:58:43Z,42.805,6.029,13.2991,4.60009,2470.423,2021-9-18T10:00:05Z
2021-09-18T08:01:46Z,42.805,6.029,13.2991,4.60009,2470.46,2021-9-18T10:03:08Z
2021-09-18T08:04:50Z,42.805,6.029,13.2992,4.60008,2470.474,2021-9-18T10:06:11Z
2021-09-18T08:07:53Z,42.805,6.029,13.2991,4.60010,2470.45,2021-9-18T10:09:14Z
2021-09-18T08:10:56Z,42.805,6.029,13.2991,4.60011,2470.427,2021-9-18T10:12:17Z
2021-09-18T08:13:59Z,42.805,6.029,13.2996,4.60019,2470.437,2021-9-18T10:15:20Z
2021-09-18T08:17:02Z,42.805,6.029,13.2989,4.60013,2470.437,2021-9-18T10:18:23Z
2021-09-18T08:20:05Z,42.805,6.029,13.2991,4.60014,2470.437,2021-9-18T10:21:26Z
2021-09-18T08:23:08Z,42.805,6.029,13.2991,4.60010,2470.413,2021-9-18T10:24:30Z
2021-09-18T08:26:12Z,42.805,6.029,13.2991,4.60007,2470.427,2021-9-18T10:27:33Z
2021-09-18T08:29:15Z,42.805,6.029,13.2994,4.60011,2470.437,2021-9-18T10:30:36Z
2021-09-18T08:32:18Z,42.805,6.029,13.2987,4.60011,2470.437,2021-9-18T10:33:39Z
2021-09-18T08:35:21Z,42.805,6.029,13.2995,4.60013,2470.413,2021-9-18T10:36:42Z
2021-09-18T08:38:24Z,42.805,6.029,13.2997,4.60009,2470.45,2021-9-18T10:39:45Z
2021-09-18T08:41:27Z,42.805,6.029,13.2996,4.60011,2470.427,2021-9-18T10:42:48Z
2021-09-18T08:44:30Z,42.805,6.029,13.2993,4.60007,2470.427,2021-9-18T10:45:51Z
2021-09-18T08:47:33Z,42.805,6.029,13.2994,4.60011,2470.45,2021-9-18T10:48:55Z
2021-09-18T08:50:37Z,42.805,6.029,13.2992,4.60011,2470.39,2021-9-18T10:51:58Z
2021-09-18T08:53:40Z,42.805,6.029,13.2990,4.60011,2470.427,2021-9-18T10:55:01Z
2021-09-18T08:56:43Z,42.805,6.029,13.2996,4.60015,2470.413,2021-9-18T10:58:04Z
2021-09-18T08:59:46Z,42.805,6.029,13.2995,4.60011,2470.404,2021-9-18T11:01:07Z
2021-09-18T09:02:49Z,42.805,6.029,13.2992,4.60019,2470.39,2021-9-18T11:04:10Z
2021-09-18T09:05:52Z,42.805,6.029,13.2993,4.60009,2470.413,2021-9-18T11:07:13Z
2021-09-18T09:08:55Z,42.805,6.029,13.2996,4.60009,2470.413,2021-9-18T11:10:16Z
2021-09-18T09:11:58Z,42.805,6.029,13.2993,4.60009,2470.413,2021-9-18T11:13:20Z
2021-09-18T09:15:02Z,42.805,6.029,13.2996,4.60011,2470.39,2021-9-18T11:16:23Z
2021-09-18T09:18:05Z,42.805,6.029,13.2990,4.60009,2470.39,2021-9-18T11:19:26Z
2021-09-18T09:21:08Z,42.805,6.029,13.2996,4.60016,2470.39,2021-9-18T11:22:29Z
2021-09-18T09:24:11Z,42.805,6.029,13.2991,4.60013,2470.39,2021-9-18T11:25:32Z
2021-09-18T09:27:14Z,42.805,6.029,13.2996,4.60013,2470.427,2021-9-18T11:28:35Z
2021-09-18T09:30:17Z,42.805,6.029,13.2993,4.60016,2470.404,2021-9-18T11:31:38Z
2021-09-18T09:33:20Z,42.805,6.029,13.2991,4.60009,2470.39,2021-9-18T11:34:42Z
2021-09-18T09:36:23Z,42.805,6.029,13.2994,4.60010,2470.366,2021-9-18T11:37:45Z
2021-09-18T09:39:27Z,42.805,6.029,13.2998,4.60017,2470.39,2021-9-18T11:40:48Z
2021-09-18T09:42:30Z,42.805,6.029,13.2992,4.60011,2470.39,2021-9-18T11:43:51Z
2021-09-18T09:45:33Z,42.805,6.029,13.2994,4.60009,2470.413,2021-9-18T11:46:54Z
2021-09-18T09:48:36Z,42.805,6.029,13.2993,4.60009,2470.427,2021-9-18T11:49:57Z
2021-09-18T09:51:39Z,42.805,6.029,13.2994,4.60016,2470.404,2021-9-18T11:53:00Z
2021-09-18T09:54:42Z,42.805,6.029,13.2991,4.60009,2470.366,2021-9-18T11:56:03Z
2021-09-18T09:57:45Z,42.805,6.029,13.2990,4.60011,2470.38,2021-9-18T11:59:07Z
2021-09-18T10:00:48Z,42.805,6.029,13.2990,4.60009,2470.39,2021-9-18T12:02:10Z
2021-09-18T10:03:52Z,42.805,6.029,13.2995,4.60009,2470.366,2021-9-18T12:05:13Z
2021-09-18T10:06:55Z,42.805,6.029,13.2993,4.60010,2470.39,2021-9-18T12:08:16Z
2021-09-18T10:09:58Z,42.805,6.029,13.2993,4.60009,2470.39,2021-9-18T12:11:19Z
2021-09-18T10:13:01Z,42.805,6.029,13.2992,4.60007,2470.39,2021-9-18T12:14:22Z
2021-09-18T10:16:04Z,42.805,6.029,13.2991,4.60007,2470.39,2021-9-18T12:17:25Z
2021-09-18T10:19:07Z,42.805,6.029,13.2993,4.60011,2470.39,2021-9-18T12:20:28Z
2021-09-18T10:22:10Z,42.805,6.029,13.2993,4.60011,2470.404,2021-9-18T12:23:32Z
2021-09-18T10:25:13Z,42.805,6.029,13.2998,4.60014,2470.38,2021-9-18T12:26:35Z
2021-09-18T10:28:17Z,42.805,6.029,13.2995,4.60011,2470.404,2021-9-18T12:29:38Z
2021-09-18T10:31:20Z,42.805,6.029,13.2991,4.60011,2470.366,2021-9-18T12:32:41Z
2021-09-18T10:34:23Z,42.805,6.029,13.2993,4.60010,2470.38,2021-9-18T12:35:44Z
2021-09-18T10:37:26Z,42.805,6.029,13.2991,4.60009,2470.38,2021-9-18T12:38:47Z
2021-09-18T10:40:29Z,42.805,6.029,13.2993,4.60010,2470.38,2021-9-18T12:41:50Z
2021-09-18T10:43:32Z,42.805,6.029,13.2991,4.60015,2470.343,2021-9-18T12:44:54Z
2021-09-18T10:46:35Z,42.805,6.029,13.2993,4.60009,2470.39,2021-9-18T12:47:57Z
2021-09-18T10:49:39Z,42.805,6.029,13.2994,4.60010,2470.404,2021-9-18T12:51:00Z
2021-09-18T10:52:42Z,42.805,6.029,13.2994,4.60009,2470.366,2021-9-18T12:54:03Z
2021-09-18T10:55:45Z,42.805,6.029,13.2991,4.60009,2470.32,2021-9-18T12:57:06Z
2021-09-18T10:58:48Z,42.805,6.029,13.2992,4.60019,2470.343,2021-9-18T13:00:09Z
2021-09-18T11:01:51Z,42.805,6.029,13.2995,4.60011,2470.38,2021-9-18T13:03:12Z
2021-09-18T11:04:54Z,42.805,6.029,13.2992,4.60011,2470.343,2021-9-18T13:06:15Z
2021-09-18T11:07:57Z,42.805,6.029,13.2996,4.60014,2470.357,2021-9-18T13:09:19Z
2021-09-18T11:11:00Z,42.805,6.029,13.2996,4.60011,2470.32,2021-9-18T13:12:22Z
2021-09-18T11:14:04Z,42.805,6.029,13.2994,4.60013,2470.357,2021-9-18T13:15:25Z
2021-09-18T11:17:07Z,42.805,6.029,13.2997,4.60011,2470.366,2021-9-18T13:18:28Z
2021-09-18T11:20:10Z,42.805,6.029,13.2993,4.60014,2470.357,2021-9-18T13:21:31Z
2021-09-18T11:23:13Z,42.805,6.029,13.3000,4.60011,2470.366,2021-9-18T13:24:34Z
2021-09-18T11:26:16Z,42.805,6.029,13.2993,4.60012,2470.343,2021-9-18T13:27:37Z
2021-09-18T11:29:19Z,42.805,6.029,13.2993,4.60012,2470.32,2021-9-18T13:30:40Z
2021-09-18T11:32:22Z,42.805,6.029,13.2993,4.60011,2470.357,2021-9-18T13:33:44Z
2021-09-18T11:35:25Z,42.805,6.029,13.2995,4.60011,2470.38,2021-9-18T13:36:47Z
2021-09-18T11:38:29Z,42.805,6.029,13.2993,4.60011,2470.357,2021-9-18T13:39:50Z
2021-09-18T11:41:32Z,42.805,6.029,13.2996,4.60015,2470.343,2021-9-18T13:42:53Z
2021-09-18T11:44:35Z,42.805,6.029,13.2990,4.60010,2470.334,2021-9-18T13:45:56Z
2021-09-18T11:47:38Z,42.805,6.029,13.2993,4.60010,2470.343,2021-9-18T13:48:59Z
2021-09-18T11:50:41Z,42.805,6.029,13.2996,4.60011,2470.357,2021-9-18T13:52:02Z
2021-09-18T11:53:44Z,42.805,6.029,13.2996,4.60007,2470.38,2021-9-18T13:55:05Z
2021-09-18T11:56:47Z,42.805,6.029,13.2993,4.60011,2470.343,2021-9-18T13:58:09Z
2021-09-18T11:59:50Z,42.805,6.029,13.2993,4.60014,2470.32,2021-9-18T14:01:12Z
2021-09-18T12:02:54Z,42.805,6.029,13.2993,4.60017,2470.343,2021-9-18T14:04:15Z
2021-09-18T12:05:57Z,42.805,6.029,13.2989,4.60011,2470.334,2021-9-18T14:07:18Z
2021-09-18T12:09:00Z,42.805,6.029,13.2994,4.60012,2470.343,2021-9-18T14:10:21Z
2021-09-18T12:12:03Z,42.805,6.029,13.2986,4.60010,2470.343,2021-9-18T14:13:24Z
2021-09-18T12:15:06Z,42.805,6.029,13.2996,4.60010,2470.366,2021-9-18T14:16:27Z
2021-09-18T12:18:09Z,42.805,6.029,13.2994,4.60012,2470.343,2021-9-18T14:19:30Z
2021-09-18T12:21:12Z,42.805,6.029,13.2991,4.60010,2470.366,2021-9-18T14:22:34Z
2021-09-18T12:24:15Z,42.805,6.029,13.2991,4.60009,2470.32,2021-9-18T14:25:37Z
2021-09-18T12:27:19Z,42.805,6.029,13.2991,4.60020,2470.357,2021-9-18T14:28:40Z
2021-09-18T12:30:22Z,42.805,6.029,13.2995,4.60015,2470.343,2021-9-18T14:31:43Z
2021-09-18T12:33:25Z,42.805,6.029,13.2993,4.60011,2470.366,2021-9-18T14:34:46Z
2021-09-18T12:36:28Z,42.805,6.029,13.2995,4.60013,2470.334,2021-9-18T14:37:49Z
2021-09-18T12:39:31Z,42.805,6.029,13.2992,4.60014,2470.32,2021-9-18T14:40:52Z
2021-09-18T12:42:34Z,42.805,6.029,13.2992,4.60013,2470.343,2021-9-18T14:43:55Z
2021-09-18T12:45:37Z,42.805,6.029,13.2993,4.60012,2470.38,2021-9-18T14:46:59Z
2021-09-18T12:48:40Z,42.805,6.029,13.2993,4.60012,2470.343,2021-9-18T14:50:02Z
2021-09-18T12:51:44Z,42.805,6.029,13.2999,4.60014,2470.39,2021-9-18T14:53:05Z
2021-09-18T12:54:47Z,42.805,6.029,13.2993,4.60014,2470.343,2021-9-18T14:56:08Z
2021-09-18T12:57:50Z,42.805,6.029,13.2991,4.60013,2470.38,2021-9-18T14:59:11Z
2021-09-18T13:00:53Z,42.805,6.029,13.2993,4.60010,2470.366,2021-9-18T15:02:14Z
2021-09-18T13:03:56Z,42.805,6.029,13.2996,4.60010,2470.39,2021-9-18T15:05:17Z
2021-09-18T13:06:59Z,42.805,6.029,13.2991,4.60009,2470.366,2021-9-18T15:08:21Z
2021-09-18T13:10:02Z,42.805,6.029,13.2988,4.60008,2470.38,2021-9-18T15:11:24Z
2021-09-18T13:13:05Z,42.805,6.029,13.2998,4.60014,2470.366,2021-9-18T15:14:27Z
2021-09-18T13:16:09Z,42.805,6.029,13.2992,4.60011,2470.38,2021-9-18T15:17:30Z
2021-09-18T13:19:12Z,42.805,6.029,13.2990,4.60009,2470.32,2021-9-18T15:20:33Z
2021-09-18T13:22:15Z,42.805,6.029,13.2986,4.60009,2470.39,2021-9-18T15:23:36Z
2021-09-18T13:25:18Z,42.805,6.029,13.2994,4.60008,2470.38,2021-9-18T15:26:39Z
2021-09-18T13:28:21Z,42.805,6.029,13.3002,4.60014,2470.39,2021-9-18T15:29:42Z
2021-09-18T13:31:24Z,42.805,6.029,13.2996,4.60015,2470.366,2021-9-18T15:32:46Z
2021-09-18T13:34:27Z,42.805,6.029,13.2995,4.60025,2470.38,2021-9-18T15:35:49Z
2021-09-18T13:37:31Z,42.805,6.029,13.2991,4.60017,2470.413,2021-9-18T15:38:52Z
2021-09-18T13:40:34Z,42.805,6.029,13.2993,4.60020,2470.366,2021-9-18T15:41:55Z
2021-09-18T13:43:37Z,42.805,6.029,13.2996,4.60017,2470.404,2021-9-18T15:44:58Z
2021-09-18T13:46:40Z,42.805,6.029,13.2992,4.60016,2470.366,2021-9-18T15:48:01Z
2021-09-18T13:49:43Z,42.805,6.029,13.2998,4.60022,2470.404,2021-9-18T15:51:04Z
2021-09-18T13:52:46Z,42.805,6.029,13.2996,4.60021,2470.404,2021-9-18T15:54:07Z
2021-09-18T13:55:49Z,42.805,6.029,13.2996,4.60014,2470.404,2021-9-18T15:57:11Z
2021-09-18T13:58:52Z,42.805,6.029,13.2993,4.60014,2470.404,2021-9-18T16:00:14Z
2021-09-18T14:01:56Z,42.805,6.029,13.2996,4.60014,2470.427,2021-9-18T16:03:17Z
2021-09-18T14:04:59Z,42.805,6.029,13.2994,4.60014,2470.413,2021-9-18T16:06:20Z
2021-09-18T14:08:02Z,42.805,6.029,13.2992,4.60015,2470.39,2021-9-18T16:09:23Z
2021-09-18T14:11:05Z,42.805,6.029,13.2993,4.60021,2470.404,2021-9-18T16:12:26Z
2021-09-18T14:14:08Z,42.805,6.029,13.2991,4.60016,2470.45,2021-9-18T16:15:29Z
2021-09-18T14:17:11Z,42.805,6.029,13.2993,4.60018,2470.427,2021-9-18T16:18:32Z
2021-09-18T14:20:14Z,42.805,6.029,13.2998,4.60015,2470.45,2021-9-18T16:21:36Z
2021-09-18T14:23:17Z,42.805,6.029,13.2994,4.60020,2470.427,2021-9-18T16:24:39Z
2021-09-18T14:26:21Z,42.805,6.029,13.2996,4.60016,2470.437,2021-9-18T16:27:42Z
2021-09-18T14:29:24Z,42.805,6.029,13.2998,4.60019,2470.404,2021-9-18T16:30:45Z
2021-09-18T14:32:27Z,42.805,6.029,13.2996,4.60019,2470.437,2021-9-18T16:33:48Z
2021-09-18T14:35:30Z,42.805,6.029,13.2993,4.60014,2470.437,2021-9-18T16:36:51Z
2021-09-18T14:38:33Z,42.805,6.029,13.2996,4.60018,2470.45,2021-9-18T16:39:54Z
2021-09-18T14:41:36Z,42.805,6.029,13.2993,4.60022,2470.437,2021-9-18T16:42:57Z
2021-09-18T14:44:39Z,42.805,6.029,13.2992,4.60016,2470.45,2021-9-18T16:46:01Z
2021-09-18T14:47:42Z,42.805,6.029,13.2996,4.60014,2470.45,2021-9-18T16:49:04Z
2021-09-18T14:50:46Z,42.805,6.029,13.2992,4.60021,2470.45,2021-9-18T16:52:07Z
2021-09-18T14:53:49Z,42.805,6.029,13.2995,4.60015,2470.45,2021-9-18T16:55:10Z
2021-09-18T14:56:52Z,42.805,6.029,13.2990,4.60019,2470.474,2021-9-18T16:58:13Z
2021-09-18T14:59:55Z,42.805,6.029,13.2996,4.60017,2470.45,2021-9-18T17:01:16Z
2021-09-18T15:02:58Z,42.805,6.029,13.2991,4.60020,2470.437,2021-9-18T17:04:19Z
2021-09-18T15:06:01Z,42.805,6.029,13.2996,4.60022,2470.437,2021-9-18T17:07:23Z
2021-09-18T15:09:04Z,42.805,6.029,13.2995,4.60020,2470.46,2021-9-18T17:10:26Z
2021-09-18T15:12:07Z,42.805,6.029,13.2994,4.60019,2470.474,2021-9-18T17:13:29Z
2021-09-18T15:15:11Z,42.805,6.029,13.2996,4.60014,2470.437,2021-9-18T17:16:32Z